Temperature
17 18 18 19 21 22 22 23 23 23 23 23 22 23 25 25 26 25 21 20 21 20 18 17 16 16 15 15 15 15 15 15 15 14 13 13 12 12 12 11 12 12 12 12 13 13 13 13 13
17 17 18 20 21 22 22 23 22 23 23 22 22 22 24 24 23 21 20 21 21 20 18 17 16 15 15 15 15 15 15 15 15 13 13 12 12 12 12 12 12 12 13 13 13 13 13 13 13
17 17 19 21 21 22 22 23 23 22 21 21 23 23 23 23 21 20 20 21 20 19 18 17 16 15 15 15 15 15 15 16 15 14 13 12 12 12 12 12 13 13 13 13 13 13 13 13 13
16 17 19 21 21 22 22 23 22 22 22 22 22 24 23 21 20 20 21 21 20 19 18 18 16 15 15 15 15 15 16 16 15 14 13 13 13 12 12 12 13 13 13 13 13 13 13 13 13
16 19 20 20 21 22 22 22 21 22 23 22 22 24 23 21 21 21 21 20 19 19 18 17 16 15 15 15 15 15 15 16 15 15 14 13 13 13 12 13 13 13 13 13 13 13 13 13 13
17 19 19 20 21 22 22 20 21 22 22 22 22 23 23 21 20 21 20 20 19 19 18 17 16 15 15 14 14 15 15 15 15 15 14 13 13 13 13 13 13 13 13 14 13 13 13 13 13
17 19 19 20 21 21 21 20 21 22 22 22 22 23 23 20 20 20 20 19 18 18 18 17 16 15 14 14 14 14 14 15 15 15 14 13 13 13 13 13 13 13 13 13 13 13 13 13 13
16 19 19 20 20 20 20 20 20 21 22 21 21 23 23 20 20 20 19 19 19 18 17 17 16 15 14 14 14 14 14 14 15 15 14 14 13 13 13 13 13 13 13 13 13 13 13 13 13
15 17 18 19 19 20 19 20 20 19 20 20 20 21 20 19 19 19 19 19 19 19 18 17 16 15 15 14 14 14 14 14 14 14 14 14 13 12 13 13 13 13 13 13 13 13 13 13 12
15 17 18 19 19 19 18 19 19 19 20 21 20 19 19 19 18 18 18 19 19 19 18 18 17 16 15 15 14 14 14 14 13 13 14 13 13 12 12 13 13 13 13 13 12 12 12 12 12
15 16 17 16 16 17 17 18 18 19 20 21 20 19 18 18 17 18 18 18 18 18 18 18 17 17 16 15 14 14 14 14 13 13 13 13 13 13 12 12 12 12 12 12 12 12 12 12 12
14 15 14 15 14 15 16 17 17 18 19 19 18 17 17 18 18 18 18 18 18 17 18 18 18 17 16 16 15 14 14 14 13 13 13 13 13 13 12 12 12 12 12 12 12 12 12 12 12
14 14 13 13 13 13 14 15 16 16 17 17 17 16 17 18 18 18 18 18 18 18 18 18 18 18 17 16 16 15 14 14 14 14 13 13 13 12 12 12 12 12 12 12 12 12 12 12 12
13 13 13 13 13 13 14 15 15 15 16 16 16 16 17 18 18 18 18 18 18 18 18 19 19 18 18 17 17 16 15 14 14 14 13 13 13 12 12 12 12 12 11 11 11 12 12 12 11
11 12 13 13 13 14 14 14 16 15 15 16 16 16 17 17 17 18 18 18 18 18 18 19 19 19 18 18 17 16 15 14 14 13 13 13 13 12 12 12 12 12 12 12 12 12 12 11 11
12 12 13 14 13 13 13 14 17 16 15 15 16 16 16 17 17 17 18 18 18 18 19 19 19 19 19 18 17 16 15 14 14 13 13 13 13 13 12 12 12 12 11 11 11 11 11 11 11
11 12 13 13 13 14 13 14 16 14 14 15 15 16 16 16 16 17 17 17 18 18 18 19 19 19 19 18 17 16 15 14 14 13 13 13 13 13 12 12 12 12 11 11 11 11 11 11 10
13 12 12 13 13 13 13 14 15 14 14 14 15 15 15 15 15 16 16 16 17 18 18 18 19 19 19 18 17 15 14 14 14 13 13 13 13 13 12 12 12 12 11 11 11 11 11 10 10
11 11 12 12 13 12 12 13 14 14 14 14 14 15 15 15 15 15 15 15 16 17 18 18 19 19 18 18 17 15 14 14 14 13 13 13 13 12 12 12 11 11 11 11 11 11 10 10 9
10 10 10 11 12 11 11 12 13 14 14 14 14 15 15 15 15 15 15 15 15 16 17 18 19 19 18 18 17 15 14 14 13 13 13 13 12 12 11 11 11 11 11 11 10 10 9 9 8
9 9 10 10 11 11 10 12 15 16 15 14 14 14 14 15 15 16 16 16 15 16 17 18 18 18 18 17 16 15 14 13 13 13 13 12 12 11 11 11 11 11 10 10 10 9 8 7 7
9 10 9 9 9 10 10 10 14 15 15 15 15 15 15 15 15 15 15 16 15 16 16 17 17 17 17 17 17 16 14 13 13 12 12 11 11 11 11 10 10 10 10 10 9 8 7 6 5
9 9 9 9 9 8 9 8 12 15 14 15 15 15 15 15 15 15 15 15 15 15 16 17 17 16 16 16 16 14 13 13 13 12 11 11 10 10 10 10 10 10 9 9 8 7 6 6 5
9 8 8 8 7 7 10 10 12 16 16 15 16 15 15 15 14 14 14 14 14 14 15 16 16 16 16 15 14 13 13 13 12 12 11 10 10 10 10 10 9 9 9 8 7 6 5 5 4
8 7 8 8 7 9 12 11 12 15 15 15 15 15 15 14 14 14 14 14 13 13 14 15 16 15 15 14 13 13 12 12 12 12 11 10 10 10 9 9 9 8 8 7 6 5 5 4 3
8 8 8 9 10 12 11 10 13 15 15 14 14 14 13 13 13 13 13 13 13 13 14 15 15 15 14 13 12 12 12 12 12 11 11 10 10 9 9 9 8 8 7 6 5 4 4 3 3
7 7 9 8 8 8 10 12 14 14 14 14 14 13 13 13 13 13 13 12 12 12 13 14 14 14 13 12 12 11 11 11 11 10 10 9 9 9 8 8 7 7 6 5 4 4 3 3 2
9 8 7 6 7 9 11 12 13 14 14 14 13 13 12 12 12 12 12 11 11 10 11 12 12 13 12 12 11 11 11 11 10 9 9 9 9 8 8 7 6 6 5 4 3 3 2 2 1
7 6 6 7 8 8 10 13 15 14 13 13 13 12 12 11 11 11 11 10 9 8 8 9 10 10 11 11 11 11 10 9 9 8 8 8 8 7 7 6 5 5 4 3 3 2 2 1 1
9 8 7 7 7 8 8 11 14 13 13 12 12 11 11 10 10 10 9 9 8 7 7 7 8 10 10 11 10 10 9 8 8 8 8 8 7 6 6 5 4 4 3 2 2 2 1 1 0
Wind_Speed
10 7 5 3 4 6 8 5 3 3 2 2 4 6 5 3 2 0 4 9 9 16 18 20 19 18 17 16 15 13 12 10 9 9 10 10 9 8 7 7 7 6 7 8 9 9 10 10 10
6 4 3 4 6 9 7 6 6 2 3 6 4 5 5 3 1 3 7 10 11 16 17 18 19 18 17 16 15 13 12 11 10 10 10 10 9 8 8 8 7 7 7 8 9 9 10 10 9
3 3 4 5 8 11 5 5 6 0 5 3 2 3 3 0 2 3 6 12 12 15 16 18 20 18 17 16 15 13 12 11 10 10 10 9 9 8 8 7 7 8 7 7 8 8 8 8 7
4 4 5 10 16 13 6 4 3 2 2 2 4 3 2 1 2 3 8 12 13 15 16 18 20 18 17 16 14 13 12 11 10 9 9 8 7 7 7 7 8 7 7 6 6 6 6 6 5
5 6 10 14 19 13 10 5 4 5 4 4 5 4 2 3 2 5 10 12 13 14 15 18 19 18 17 16 14 13 12 11 10 9 8 6 5 5 6 8 7 6 5 5 5 5 4 4 4
7 7 12 18 20 14 11 8 7 8 6 5 4 4 2 4 4 7 10 11 12 14 14 17 19 18 17 16 14 13 12 10 10 9 7 5 4 3 6 7 6 4 3 3 3 4 4 3 3
9 10 17 19 18 16 12 8 11 10 10 6 3 4 3 4 4 8 9 10 11 13 13 14 17 17 18 17 15 14 12 11 10 8 7 4 4 3 6 7 5 3 2 2 3 3 4 3 4
7 7 14 17 18 16 9 7 7 9 9 3 4 6 2 3 6 8 9 9 10 11 12 13 15 16 16 16 16 15 13 11 10 8 6 6 5 5 7 7 5 2 2 3 3 4 4 4 4
6 10 16 16 13 11 8 9 7 4 7 5 5 3 3 3 7 9 9 9 9 10 11 13 13 14 14 14 15 16 14 12 11 9 8 7 6 5 6 5 4 2 2 2 3 4 4 2 4
9 13 16 9 9 7 7 8 6 6 9 9 8 4 3 3 6 9 11 12 12 13 13 13 14 14 14 12 13 12 12 12 10 9 9 8 6 4 4 6 4 3 3 3 4 4 2 2 1
9 11 9 8 8 7 8 9 7 9 12 11 8 4 2 1 5 8 10 11 12 13 13 13 14 13 13 11 11 10 10 10 10 9 9 7 6 5 5 4 5 4 3 3 4 2 3 3 3
7 10 8 7 6 9 12 13 14 16 17 10 8 9 10 10 8 9 10 10 9 10 13 14 15 14 14 12 11 10 9 9 8 10 10 8 6 5 5 4 3 3 3 3 2 2 3 3 3
12 7 8 9 9 10 13 17 18 20 20 19 18 17 17 16 14 12 10 10 10 11 12 14 15 15 14 13 11 10 10 10 11 10 11 10 7 6 5 4 4 3 3 3 3 3 3 3 3
5 8 8 9 12 13 17 21 20 20 18 19 20 21 21 20 18 16 13 13 13 13 12 13 16 16 16 14 13 12 11 11 11 11 12 12 8 7 6 5 5 4 4 4 4 4 3 3 3
4 8 11 12 14 10 12 18 23 24 21 22 22 22 22 22 21 20 18 16 14 13 12 13 14 16 17 16 15 11 11 12 11 11 13 13 10 9 7 6 5 5 6 5 4 4 3 3 2
4 6 7 5 6 7 9 17 13 11 14 18 19 20 21 21 22 21 20 18 16 13 12 12 11 15 17 16 14 11 12 12 11 12 12 12 12 11 9 7 6 7 6 5 4 3 3 3 4
7 8 9 7 6 7 11 15 9 6 9 14 15 16 17 18 20 20 19 18 17 15 13 12 13 15 16 15 13 12 11 11 10 11 10 12 12 12 10 7 7 8 6 5 4 4 3 4 5
7 8 8 9 4 9 16 20 17 16 18 19 19 18 18 18 19 19 18 17 16 15 13 12 12 14 14 13 11 9 9 9 8 8 10 13 13 13 12 9 9 8 6 5 5 5 5 4 5
6 9 13 12 10 14 21 26 24 22 23 24 24 23 23 23 22 20 19 17 15 14 13 13 13 14 14 12 12 10 9 8 7 7 11 13 14 14 12 9 8 6 6 5 5 4 5 5 5
13 14 16 14 12 12 21 30 27 26 28 27 26 26 25 25 24 23 21 18 16 15 14 13 14 15 16 14 12 9 9 7 8 8 10 13 14 13 11 10 8 7 7 7 6 4 3 4 5
15 16 16 14 15 15 18 23 20 15 19 21 23 24 25 25 25 24 24 22 18 17 15 13 15 16 17 16 12 11 9 7 6 8 8 10 12 12 12 11 9 8 7 6 6 5 4 3 3
11 10 13 13 10 8 7 12 17 12 13 15 17 18 20 21 22 23 23 23 21 18 15 14 15 16 17 18 17 19 12 10 8 9 9 10 12 12 12 12 11 9 7 7 6 4 3 2 2
7 4 7 9 11 12 12 11 18 12 15 14 16 18 18 19 20 21 22 22 21 18 15 14 16 16 18 18 19 18 14 12 12 12 14 12 10 11 12 12 10 9 7 7 6 4 3 2 1
6 4 8 9 8 10 14 14 17 13 13 13 13 15 16 17 18 19 19 19 19 17 15 15 17 17 18 18 18 18 19 19 19 17 15 11 9 9 11 11 10 9 7 6 5 3 2 1 0
9 5 4 5 7 11 7 11 16 15 10 12 14 15 14 14 15 16 17 17 17 18 17 17 19 19 19 19 18 18 20 22 22 19 16 14 11 9 10 9 9 8 7 6 4 3 1 1 2
13 9 7 6 7 9 8 13 14 13 11 12 14 14 14 15 14 15 15 15 17 19 19 20 20 20 20 19 18 18 19 15 15 16 15 13 10 10 11 10 9 8 7 5 3 2 1 2 3
7 10 8 7 11 12 12 15 16 15 15 14 13 13 13 14 14 14 14 14 16 19 20 21 21 21 20 20 20 19 18 16 16 16 14 11 11 11 11 10 9 8 6 4 2 1 2 3 4
10 5 6 6 6 10 15 20 15 14 13 12 12 12 13 15 15 14 11 12 14 17 18 19 20 21 21 21 19 17 18 17 16 15 15 14 14 12 11 10 8 7 5 3 1 1 2 4 4
12 8 9 8 8 8 13 14 8 10 10 11 12 13 14 15 15 12 9 9 13 15 17 18 20 21 20 20 20 20 18 17 16 15 15 14 13 12 10 9 7 6 4 2 1 2 3 5 5
14 15 14 10 12 12 12 17 10 10 11 11 13 14 14 15 14 10 6 9 14 16 17 19 20 20 20 20 20 20 19 17 16 16 15 14 13 11 9 8 6 4 2 1 2 3 4 6 7
Wind_Direction
308 311 295 275 256 240 243 222 214 206 214 290 297 271 260 242 237 65 94 146 137 153 155 155 153 150 147 143 138 134 131 131 135 138 136 133 127 115 103 89 74 62 52 49 50 56 66 77 83
307 297 266 257 249 240 230 211 199 186 322 315 273 239 241 240 356 80 132 148 149 155 157 160 152 153 151 147 142 138 136 136 134 133 134 132 126 114 102 86 72 65 61 59 55 57 60 62 64
267 277 255 236 236 238 231 191 178 25 322 303 287 240 262 357 100 118 131 152 155 158 160 153 153 156 155 151 147 143 141 141 137 133 132 131 128 122 109 95 81 74 70 66 63 60 56 53 48
225 203 221 234 234 233 238 172 156 307 332 324 315 271 211 78 89 102 136 156 159 162 162 155 158 159 159 156 153 150 149 148 146 142 138 137 137 134 121 110 99 90 80 71 64 60 54 46 36
214 216 222 231 236 231 230 237 250 283 304 315 310 287 209 127 120 129 149 160 164 164 164 160 162 163 164 163 161 158 157 156 156 154 151 151 154 148 135 123 115 106 91 74 60 52 46 37 19
196 209 225 231 233 228 233 239 252 263 275 290 279 261 197 126 149 145 154 163 165 165 167 163 167 167 169 170 169 167 165 163 163 164 164 155 145 144 148 138 129 119 100 65 40 32 25 13 359
208 212 230 238 241 234 234 231 245 258 260 259 256 246 186 148 130 144 153 159 162 166 170 170 175 176 175 176 175 174 172 168 169 173 169 135 88 98 146 141 134 121 74 29 16 11 11 9 5
226 219 233 236 240 240 228 221 239 249 256 252 234 238 203 110 134 144 149 157 161 172 179 178 181 184 185 184 180 177 175 170 168 168 151 126 113 112 126 141 118 93 28 12 7 11 21 32 32
209 222 231 229 237 239 215 222 221 239 240 228 222 252 25 92 154 159 162 168 174 182 189 189 188 188 190 189 182 181 177 172 170 170 153 165 178 160 154 113 99 80 41 28 26 36 46 53 87
205 226 233 236 235 230 202 216 220 222 225 219 207 180 68 131 182 192 194 191 190 191 194 196 197 194 193 190 185 189 185 181 188 179 176 186 180 168 146 120 111 108 108 103 77 74 82 314 25
210 232 239 231 232 237 232 233 237 241 235 226 222 225 321 274 220 225 224 215 205 198 194 199 200 198 197 192 191 190 188 186 189 185 182 181 178 173 177 170 155 154 153 132 110 110 53 34 23
219 236 242 243 239 246 249 251 249 245 246 251 273 290 289 279 263 247 241 235 223 211 203 199 200 199 201 198 195 193 190 188 187 186 186 183 179 180 175 175 154 152 132 105 90 65 64 45 26
227 242 242 250 257 261 261 255 257 257 257 264 270 273 272 270 267 260 256 249 238 228 215 206 201 201 200 200 199 198 195 192 189 184 187 187 183 179 168 156 140 127 114 113 99 80 64 38 23
236 248 258 263 261 261 260 261 254 253 254 257 257 259 260 260 261 262 257 250 243 234 224 210 205 203 200 199 198 199 197 193 190 186 187 188 185 173 159 149 137 125 115 103 98 83 67 41 14
246 264 265 255 254 255 264 262 248 252 253 253 253 254 256 257 258 257 256 254 250 243 232 216 209 204 202 202 199 197 195 192 190 188 188 186 181 167 154 144 136 125 117 113 102 86 60 38 8
228 247 255 240 240 238 239 262 262 254 253 253 254 254 254 255 255 255 254 253 251 246 237 221 207 205 202 201 197 194 193 191 188 183 180 178 171 159 146 136 129 125 119 110 96 77 54 28 356
222 241 249 260 241 250 242 265 269 262 261 262 261 260 259 258 256 254 253 251 250 246 238 223 208 205 200 197 194 191 189 186 180 173 168 163 154 146 135 126 123 124 116 106 96 70 41 19 356
232 236 248 255 258 268 264 265 266 265 269 270 268 265 262 259 258 257 255 253 250 246 238 226 208 201 193 187 183 179 174 168 160 155 151 146 142 137 127 121 123 122 118 112 103 86 57 24 349
265 260 263 267 276 286 275 275 273 271 267 265 263 261 260 259 258 256 254 252 246 237 227 216 202 189 179 178 177 171 164 149 136 133 136 136 134 131 125 125 124 122 114 110 105 89 60 32 357
250 261 268 278 277 279 282 281 278 267 260 258 259 258 256 255 253 250 247 244 238 230 219 207 196 184 179 179 175 168 144 125 117 117 121 127 128 128 127 128 125 121 115 105 91 80 66 42 19
244 251 264 275 295 278 286 287 274 259 250 252 253 254 254 251 249 245 240 235 230 225 214 201 192 182 178 169 153 136 121 116 114 119 117 121 123 123 125 125 122 119 114 104 91 78 66 49 39
252 251 257 269 278 282 284 293 286 277 261 254 253 251 250 248 246 243 239 232 224 220 210 198 187 179 173 165 164 163 162 154 149 141 129 122 120 122 123 122 120 116 112 109 100 86 75 50 26
244 246 249 262 271 278 254 261 281 269 260 259 255 256 256 255 251 246 240 234 225 215 202 190 180 176 172 172 171 169 157 140 133 130 128 122 121 122 124 122 119 115 112 109 108 101 82 62 13
220 238 260 256 259 264 252 235 276 276 269 268 263 264 265 264 260 254 247 236 226 210 194 183 175 174 172 171 169 164 149 143 141 142 137 132 131 127 127 124 120 118 116 115 115 111 106 71 324
197 214 253 239 231 250 254 238 258 278 272 264 270 277 281 278 271 261 249 233 218 202 188 180 174 170 170 167 164 157 153 150 150 148 146 144 141 138 136 130 125 120 118 120 121 121 132 212 270
197 206 226 259 262 277 257 248 261 276 271 264 267 277 287 287 281 271 255 233 213 197 187 180 173 168 166 162 155 150 149 146 146 146 145 144 140 137 135 130 125 123 125 128 132 149 193 243 267
189 214 236 268 280 275 260 259 270 261 258 257 264 278 293 299 292 281 264 234 210 194 185 178 170 163 160 154 147 145 145 143 142 140 136 132 131 133 133 131 128 127 130 134 149 189 247 266 281
225 207 202 217 263 270 270 271 269 272 262 261 273 288 301 308 304 291 269 229 203 189 179 171 164 157 152 147 143 141 141 139 138 136 135 133 132 133 135 133 132 134 138 147 184 237 264 280 288
199 208 213 231 242 264 282 279 289 277 266 273 282 290 300 308 308 296 267 213 185 171 165 159 153 148 145 142 139 137 137 137 134 132 132 131 132 135 135 135 136 139 144 161 218 264 276 287 294
218 220 215 233 242 243 266 278 285 269 269 278 286 291 301 306 305 291 247 177 162 158 155 151 147 144 141 138 136 134 134 134 132 131 130 131 131 132 132 134 136 138 148 198 261 280 286 293 297
Height
1519 1520 1521 1521 1518 1513 1509 1505 1505 1505 1503 1504 1504 1503 1500 1498 1499 1503 1503 1502 1503 1505 1507 1509 1511 1513 1514 1515 1516 1517 1517 1517 1517 1517 1519 1520 1521 1521 1521 1521 1521 1520 1520 1520 1521 1521 1522 1523 1523
1518 1519 1521 1520 1515 1512 1506 1502 1504 1504 1504 1504 1503 1503 1501 1499 1501 1502 1501 1501 1503 1505 1508 1510 1511 1513 1514 1515 1516 1517 1517 1516 1516 1517 1518 1520 1521 1522 1522 1521 1521 1520 1520 1520 1521 1521 1522 1523 1523
1516 1518 1520 1515 1511 1507 1504 1501 1502 1505 1505 1504 1502 1501 1500 1500 1501 1502 1501 1502 1504 1506 1508 1510 1511 1513 1514 1515 1516 1517 1517 1516 1517 1518 1519 1520 1521 1522 1522 1522 1521 1521 1520 1520 1521 1521 1522 1523 1523
1516 1518 1518 1513 1507 1502 1500 1500 1503 1504 1503 1503 1502 1500 1500 1501 1501 1501 1501 1502 1504 1506 1508 1509 1511 1513 1514 1515 1516 1517 1517 1517 1517 1518 1519 1520 1522 1522 1523 1523 1522 1521 1521 1521 1521 1522 1522 1523 1523
1515 1515 1511 1507 1501 1498 1501 1503 1505 1503 1502 1502 1502 1499 1499 1500 1499 1500 1501 1502 1504 1506 1508 1509 1510 1512 1514 1515 1516 1517 1517 1517 1518 1518 1519 1521 1522 1523 1523 1523 1523 1523 1522 1522 1522 1523 1523 1523 1523
1512 1510 1507 1502 1496 1497 1500 1503 1503 1502 1501 1502 1501 1499 1498 1499 1499 1500 1501 1502 1504 1506 1507 1509 1510 1512 1514 1515 1516 1517 1517 1518 1518 1519 1520 1521 1522 1523 1524 1524 1524 1524 1523 1523 1523 1523 1524 1524 1524
1508 1504 1499 1495 1493 1494 1498 1501 1501 1499 1499 1500 1501 1499 1498 1499 1499 1499 1500 1501 1503 1505 1506 1508 1510 1512 1513 1515 1516 1517 1518 1518 1518 1519 1520 1521 1522 1523 1524 1524 1524 1524 1524 1524 1524 1524 1525 1525 1525
1504 1502 1497 1494 1494 1493 1496 1499 1499 1499 1498 1499 1500 1497 1496 1499 1498 1498 1499 1501 1502 1504 1505 1507 1509 1511 1513 1514 1516 1517 1517 1518 1518 1519 1520 1521 1522 1523 1524 1524 1525 1525 1525 1525 1525 1525 1525 1525 1525
1504 1501 1493 1491 1493 1491 1495 1496 1497 1497 1497 1497 1497 1498 1497 1496 1497 1498 1499 1500 1501 1502 1504 1506 1508 1510 1512 1514 1515 1516 1517 1518 1518 1519 1519 1520 1522 1524 1524 1524 1525 1525 1525 1525 1525 1525 1525 1525 1524
1501 1495 1489 1490 1492 1492 1494 1495 1495 1495 1494 1494 1495 1496 1495 1495 1496 1498 1499 1499 1500 1501 1502 1504 1506 1508 1510 1512 1514 1515 1516 1517 1518 1519 1519 1520 1522 1523 1524 1524 1525 1525 1525 1525 1525 1525 1525 1524 1524
1497 1492 1490 1494 1495 1495 1494 1494 1495 1493 1491 1491 1492 1494 1494 1495 1495 1497 1498 1499 1500 1501 1501 1502 1504 1505 1507 1509 1511 1513 1515 1516 1517 1518 1518 1519 1521 1522 1523 1524 1525 1525 1525 1525 1525 1524 1524 1523 1523
1496 1494 1495 1494 1496 1495 1494 1493 1493 1491 1490 1491 1492 1492 1492 1493 1494 1494 1495 1497 1498 1499 1499 1500 1501 1503 1504 1506 1508 1510 1512 1513 1515 1516 1517 1518 1520 1521 1523 1524 1524 1525 1525 1524 1524 1523 1523 1522 1521
1495 1494 1495 1495 1495 1495 1494 1492 1491 1488 1488 1489 1489 1489 1489 1489 1490 1491 1492 1493 1494 1496 1496 1498 1499 1500 1501 1503 1504 1506 1508 1510 1512 1513 1515 1517 1518 1520 1521 1522 1523 1524 1524 1523 1523 1522 1521 1520 1519
1494 1494 1494 1493 1493 1492 1491 1487 1487 1481 1484 1484 1484 1484 1484 1485 1486 1487 1488 1489 1490 1491 1493 1494 1495 1496 1498 1499 1501 1503 1505 1507 1509 1511 1513 1515 1517 1518 1520 1521 1522 1522 1522 1522 1521 1520 1519 1518 1517
1495 1494 1490 1488 1489 1487 1488 1480 1477 1476 1479 1478 1478 1478 1478 1479 1480 1481 1483 1484 1486 1487 1489 1490 1491 1492 1493 1495 1497 1499 1501 1503 1506 1508 1510 1512 1515 1516 1518 1519 1520 1520 1520 1520 1519 1519 1517 1516 1514
1493 1491 1487 1483 1484 1483 1487 1472 1468 1471 1472 1471 1471 1472 1472 1472 1474 1475 1477 1478 1480 1481 1483 1484 1486 1487 1489 1490 1492 1494 1497 1500 1502 1505 1507 1510 1512 1514 1515 1517 1518 1518 1518 1518 1518 1517 1515 1514 1512
1489 1484 1481 1481 1481 1480 1479 1468 1467 1469 1469 1467 1466 1466 1466 1466 1467 1468 1470 1472 1473 1475 1477 1479 1480 1482 1484 1485 1487 1490 1493 1496 1498 1501 1503 1506 1508 1511 1513 1514 1515 1516 1517 1517 1516 1515 1514 1512 1510
1479 1480 1481 1480 1477 1478 1473 1465 1464 1465 1465 1463 1461 1461 1460 1460 1460 1462 1463 1464 1465 1467 1470 1472 1474 1476 1478 1480 1482 1485 1488 1491 1494 1497 1499 1502 1505 1507 1510 1512 1513 1514 1515 1515 1514 1513 1511 1509 1507
1483 1482 1480 1478 1478 1478 1468 1459 1457 1458 1457 1455 1454 1453 1452 1452 1453 1454 1455 1456 1457 1459 1462 1465 1467 1469 1471 1473 1475 1478 1481 1485 1489 1492 1495 1498 1502 1504 1507 1509 1511 1512 1512 1512 1512 1510 1509 1507 1504
1485 1484 1481 1478 1478 1478 1465 1452 1448 1447 1445 1444 1443 1442 1442 1442 1443 1444 1446 1448 1449 1451 1454 1457 1460 1462 1464 1467 1470 1473 1476 1480 1484 1487 1491 1495 1498 1501 1504 1506 1508 1509 1510 1510 1509 1508 1506 1504 1502
1483 1483 1479 1479 1477 1473 1468 1442 1429 1427 1431 1433 1434 1433 1432 1432 1432 1433 1435 1438 1440 1443 1446 1449 1453 1455 1458 1461 1463 1466 1470 1474 1479 1483 1487 1491 1495 1498 1501 1504 1506 1507 1508 1507 1507 1505 1504 1502 1500
1481 1479 1481 1481 1480 1471 1469 1452 1420 1422 1424 1425 1426 1424 1422 1422 1422 1423 1424 1427 1430 1434 1438 1442 1445 1448 1451 1454 1457 1460 1464 1469 1474 1479 1484 1488 1492 1495 1499 1501 1503 1505 1505 1505 1504 1502 1501 1500 1498
1478 1480 1481 1479 1478 1475 1465 1465 1420 1416 1417 1416 1417 1416 1415 1415 1414 1414 1415 1418 1422 1426 1430 1435 1438 1442 1445 1449 1452 1457 1461 1465 1471 1476 1480 1485 1489 1493 1496 1499 1501 1502 1502 1501 1500 1499 1498 1497 1496
1479 1481 1479 1477 1478 1472 1448 1450 1417 1403 1404 1406 1408 1408 1408 1408 1408 1407 1408 1410 1414 1418 1421 1427 1431 1435 1439 1443 1447 1451 1455 1461 1466 1472 1477 1482 1486 1490 1493 1496 1498 1499 1499 1498 1497 1496 1495 1494 1492
1479 1481 1474 1471 1470 1454 1437 1437 1414 1399 1403 1404 1404 1403 1402 1402 1401 1400 1401 1402 1405 1408 1412 1419 1424 1429 1433 1438 1442 1447 1452 1459 1464 1469 1474 1479 1484 1488 1491 1494 1495 1496 1496 1495 1494 1493 1492 1490 1489
1473 1474 1469 1460 1444 1432 1431 1427 1403 1397 1400 1401 1401 1400 1398 1397 1395 1394 1394 1395 1397 1400 1405 1411 1417 1423 1428 1433 1438 1443 1450 1456 1462 1467 1472 1478 1482 1486 1489 1491 1492 1493 1492 1492 1491 1490 1489 1487 1485
1470 1471 1465 1463 1453 1447 1425 1407 1396 1394 1396 1396 1395 1394 1393 1391 1389 1388 1388 1388 1390 1393 1398 1405 1411 1417 1423 1428 1433 1440 1447 1453 1459 1465 1471 1477 1481 1484 1487 1489 1489 1490 1489 1489 1488 1487 1485 1483 1481
1464 1463 1467 1468 1456 1435 1410 1398 1389 1383 1387 1389 1389 1388 1387 1386 1384 1382 1381 1382 1385 1388 1393 1400 1407 1412 1418 1424 1431 1437 1444 1452 1458 1464 1470 1475 1479 1483 1485 1486 1487 1487 1486 1486 1485 1483 1482 1480 1477
1463 1466 1463 1456 1450 1438 1414 1390 1378 1381 1383 1385 1385 1384 1383 1381 1379 1377 1377 1378 1381 1385 1390 1396 1403 1409 1415 1422 1429 1436 1443 1451 1457 1464 1469 1474 1478 1480 1482 1483 1484 1484 1483 1482 1481 1480 1478 1475 1473
1449 1449 1452 1452 1441 1433 1421 1392 1379 1381 1381 1382 1382 1380 1378 1376 1374 1373 1373 1375 1378 1382 1388 1393 1400 1407 1414 1421 1428 1436 1443 1450 1457 1463 1468 1472 1476 1478 1480 1481 1481 1481 1480 1479 1478 1476 1474 1471 1468